Location: Bergnerzell
(49.1816°N, 10.2565°E)
Time: 05:06:46
(UTC+00:00)

IDEFIX/ARIANE 42P - Pass Details

Date: 18 August 2024
Orbit: 782 x 799 km, 98.5° (Epoch: 08 September)

Event Time Altitude Azimuth Distance (km) Brightness Sun altitude
Rises 00:24:35 0° 21° (NNE) 3,286 7.1 -26.3°
Reaches altitude 10° 00:27:06 10° 30° (NNE) 2,355 6.0 -26.2°
Maximum altitude 00:31:52 36° 96° (E) 1,232 3.6 -26.0°
Enters shadow 00:32:43 34° 118° (ESE) 1,283 3.5 -25.9°
